TimeCDT,TemperatureF,Dew PointF,Humidity,Sea Level PressureIn,VisibilityMPH,Wind Direction,Wind SpeedMPH,Gust SpeedMPH,PrecipitationIn,Events,Conditions,WindDirDegrees,DateUTC
12:23 AM,78.8,73.4,83,30.03,10.0,SE,13.8,19.6,N/A,,Overcast,140,2013-05-31 05:23:00
12:28 AM,78.8,73.4,83,30.03,10.0,SE,12.7,21.9,N/A,,Overcast,140,2013-05-31 05:28:00
12:43 AM,78.8,73.4,83,30.02,10.0,SSE,13.8,19.6,N/A,,Overcast,160,2013-05-31 05:43:00
12:48 AM,78.8,73.4,83,30.02,10.0,SSE,10.4,20.7,N/A,,Overcast,160,2013-05-31 05:48:00
12:58 AM,78.6,72.9,82,30.02,10.0,SSE,12.7,21.9,N/A,,Overcast,150,2013-05-31 05:58:00
1:23 AM,78.8,73.4,83,30.00,10.0,SSE,16.1,23.0,N/A,,Mostly Cloudy,150,2013-05-31 06:23:00
1:58 AM,78.4,72.7,82,30.00,10.0,SSE,11.5,19.6,N/A,,Scattered Clouds,150,2013-05-31 06:58:00
2:58 AM,78.3,72.5,82,29.99,10.0,SE,12.7,18.4,N/A,,Scattered Clouds,140,2013-05-31 07:58:00
3:23 AM,78.8,73.4,83,29.98,10.0,SSE,11.5,18.4,N/A,,Mostly Cloudy,150,2013-05-31 08:23:00
3:58 AM,78.3,73.0,84,29.99,10.0,SSE,10.4,23.0,N/A,,Mostly Cloudy,150,2013-05-31 08:58:00
4:03 AM,78.8,73.4,83,29.97,10.0,SSE,12.7,19.6,N/A,,Mostly Cloudy,150,2013-05-31 09:03:00
4:08 AM,78.8,73.4,83,29.98,10.0,SSE,8.1,19.6,N/A,,Mostly Cloudy,150,2013-05-31 09:08:00
4:23 AM,78.8,73.4,83,29.98,10.0,SSE,11.5,19.6,N/A,,Mostly Cloudy,150,2013-05-31 09:23:00
4:28 AM,78.8,73.4,83,29.97,10.0,SSE,12.7,-,N/A,,Mostly Cloudy,150,2013-05-31 09:28:00
4:38 AM,78.8,73.4,83,29.98,10.0,SSE,11.5,-,N/A,,Mostly Cloudy,160,2013-05-31 09:38:00
4:43 AM,78.8,73.4,83,29.98,10.0,SSE,11.5,-,N/A,,Mostly Cloudy,150,2013-05-31 09:43:00
4:58 AM,78.6,73.4,84,29.99,10.0,SSE,9.2,18.4,N/A,,Overcast,150,2013-05-31 09:58:00
5:23 AM,78.8,73.4,83,29.98,10.0,SSE,10.4,18.4,N/A,,Overcast,160,2013-05-31 10:23:00
5:28 AM,78.8,73.4,83,29.99,10.0,SSE,8.1,18.4,N/A,,Overcast,150,2013-05-31 10:28:00
5:33 AM,78.8,73.4,83,29.99,10.0,SSE,11.5,-,N/A,,Overcast,150,2013-05-31 10:33:00
5:38 AM,78.8,73.4,83,29.99,10.0,SSE,10.4,-,N/A,,Overcast,150,2013-05-31 10:38:00
5:43 AM,78.8,73.4,83,29.99,10.0,SSE,10.4,-,N/A,,Overcast,150,2013-05-31 10:43:00
5:48 AM,78.8,73.4,83,30.00,10.0,SSE,10.4,-,N/A,,Mostly Cloudy,150,2013-05-31 10:48:00
5:53 AM,78.8,73.4,83,30.00,10.0,SSE,10.4,-,N/A,,Mostly Cloudy,160,2013-05-31 10:53:00
5:58 AM,78.8,73.4,83,30.01,10.0,SSE,11.5,-,N/A,,Mostly Cloudy,150,2013-05-31 10:58:00
6:08 AM,78.8,73.4,83,30.00,10.0,SSE,9.2,-,N/A,,Mostly Cloudy,150,2013-05-31 11:08:00
6:16 AM,78.8,73.4,83,30.01,10.0,SE,10.4,-,N/A,Rain,Light Rain,140,2013-05-31 11:16:00
6:21 AM,78.8,73.4,83,30.01,10.0,SSE,10.4,-,N/A,Rain,Light Rain,150,2013-05-31 11:21:00
6:25 AM,78.8,73.4,83,30.01,10.0,SSE,9.2,-,N/A,,Mostly Cloudy,150,2013-05-31 11:25:00
6:40 AM,78.8,73.4,83,30.01,10.0,SSE,8.1,-,N/A,,Mostly Cloudy,150,2013-05-31 11:40:00
6:58 AM,78.8,73.6,84,30.03,10.0,SSE,9.2,-,0.00,,Mostly Cloudy,160,2013-05-31 11:58:00
7:18 AM,78.8,73.4,83,30.02,10.0,SSE,8.1,-,N/A,,Mostly Cloudy,150,2013-05-31 12:18:00
7:28 AM,78.8,73.4,83,30.03,10.0,SSE,9.2,-,N/A,,Mostly Cloudy,150,2013-05-31 12:28:00
7:48 AM,80.6,73.4,79,30.03,10.0,SSE,9.2,-,N/A,,Mostly Cloudy,160,2013-05-31 12:48:00
7:58 AM,79.9,73.9,82,30.04,10.0,SSE,6.9,-,N/A,,Mostly Cloudy,150,2013-05-31 12:58:00
8:13 AM,80.6,73.4,79,30.04,10.0,SSE,9.2,-,N/A,,Scattered Clouds,150,2013-05-31 13:13:00
8:28 AM,80.6,75.2,84,30.04,10.0,SE,9.2,-,N/A,,Mostly Cloudy,140,2013-05-31 13:28:00
8:33 AM,80.6,75.2,84,30.04,10.0,SE,10.4,-,N/A,,Scattered Clouds,140,2013-05-31 13:33:00
8:58 AM,81.5,74.5,79,30.05,10.0,SSE,10.4,-,N/A,,Scattered Clouds,150,2013-05-31 13:58:00
9:58 AM,83.5,74.7,75,30.05,10.0,SE,12.7,17.3,N/A,,Scattered Clouds,140,2013-05-31 14:58:00
10:08 AM,84.2,75.2,74,30.04,10.0,SE,11.5,19.6,N/A,,Mostly Cloudy,130,2013-05-31 15:08:00
10:33 AM,84.2,73.4,70,30.04,10.0,ESE,12.7,20.7,N/A,,Scattered Clouds,120,2013-05-31 15:33:00
10:58 AM,84.4,73.8,70,30.05,10.0,ESE,13.8,20.7,N/A,,Partly Cloudy,120,2013-05-31 15:58:00
11:23 AM,84.2,75.2,74,30.04,10.0,SE,16.1,-,N/A,,Mostly Cloudy,140,2013-05-31 16:23:00
11:28 AM,84.2,75.2,74,30.04,10.0,SE,13.8,-,N/A,,Mostly Cloudy,130,2013-05-31 16:28:00
11:43 AM,84.2,75.2,74,30.04,10.0,SSE,16.1,-,N/A,,Mostly Cloudy,150,2013-05-31 16:43:00
11:53 AM,84.2,75.2,74,30.04,10.0,SE,11.5,18.4,N/A,,Mostly Cloudy,130,2013-05-31 16:53:00
11:58 AM,84.9,74.7,71,30.05,10.0,SE,13.8,19.6,N/A,,Mostly Cloudy,140,2013-05-31 16:58:00
12:08 PM,84.2,75.2,74,30.04,10.0,SSE,13.8,-,N/A,,Mostly Cloudy,160,2013-05-31 17:08:00
12:33 PM,84.2,73.4,70,30.03,10.0,SE,17.3,23.0,N/A,,Scattered Clouds,140,2013-05-31 17:33:00
12:38 PM,84.2,75.2,74,30.03,10.0,ESE,15.0,23.0,N/A,,Mostly Cloudy,120,2013-05-31 17:38:00
12:43 PM,84.2,75.2,74,30.03,10.0,SE,16.1,23.0,N/A,,Mostly Cloudy,140,2013-05-31 17:43:00
12:58 PM,83.3,74.3,74,30.04,10.0,SE,15.0,21.9,N/A,,Mostly Cloudy,130,2013-05-31 17:58:00
1:13 PM,84.2,73.4,70,30.03,10.0,SE,13.8,23.0,N/A,,Mostly Cloudy,130,2013-05-31 18:13:00
1:23 PM,84.2,75.2,74,30.03,10.0,SE,13.8,21.9,N/A,,Overcast,130,2013-05-31 18:23:00
1:28 PM,84.2,75.2,74,30.03,10.0,SE,15.0,23.0,N/A,,Mostly Cloudy,130,2013-05-31 18:28:00
1:33 PM,84.2,73.4,70,30.03,10.0,SSE,16.1,23.0,N/A,,Mostly Cloudy,150,2013-05-31 18:33:00
1:58 PM,84.2,73.9,71,30.04,10.0,SE,16.1,20.7,N/A,,Mostly Cloudy,130,2013-05-31 18:58:00
2:33 PM,84.2,73.4,70,30.02,10.0,SE,15.0,21.9,N/A,,Mostly Cloudy,140,2013-05-31 19:33:00
2:53 PM,84.2,73.4,70,30.01,10.0,SE,11.5,19.6,N/A,,Overcast,140,2013-05-31 19:53:00
2:58 PM,85.6,74.1,68,30.02,10.0,SSE,17.3,23.0,N/A,,Mostly Cloudy,150,2013-05-31 19:58:00
3:03 PM,86.0,73.4,66,30.01,10.0,SSE,13.8,23.0,N/A,,Mostly Cloudy,150,2013-05-31 20:03:00
3:08 PM,84.2,73.4,70,30.01,10.0,SSE,17.3,23.0,N/A,,Scattered Clouds,150,2013-05-31 20:08:00
3:58 PM,84.2,73.9,71,30.01,10.0,SE,15.0,21.9,N/A,,Overcast,130,2013-05-31 20:58:00
4:03 PM,82.4,73.4,74,30.00,10.0,SE,13.8,20.7,N/A,,Overcast,140,2013-05-31 21:03:00
4:38 PM,84.2,73.4,70,30.00,10.0,SE,12.7,20.7,N/A,,Mostly Cloudy,140,2013-05-31 21:38:00
4:48 PM,82.4,73.4,74,30.00,10.0,SSE,12.7,20.7,N/A,,Mostly Cloudy,150,2013-05-31 21:48:00
4:58 PM,82.0,73.6,75,30.01,10.0,SE,15.0,21.9,N/A,,Mostly Cloudy,130,2013-05-31 21:58:00
5:08 PM,82.4,73.4,74,30.00,10.0,SE,12.7,23.0,N/A,,Mostly Cloudy,140,2013-05-31 22:08:00
5:33 PM,80.6,73.4,79,29.99,10.0,SE,16.1,20.7,N/A,,Mostly Cloudy,130,2013-05-31 22:33:00
5:43 PM,80.6,73.4,79,30.00,10.0,SE,12.7,-,N/A,,Mostly Cloudy,140,2013-05-31 22:43:00
5:48 PM,80.6,73.4,79,30.00,10.0,SE,15.0,-,N/A,,Overcast,140,2013-05-31 22:48:00
5:58 PM,80.4,73.2,79,30.01,10.0,SSE,13.8,19.6,N/A,,Mostly Cloudy,150,2013-05-31 22:58:00
6:03 PM,80.6,73.4,79,30.00,10.0,SE,16.1,-,N/A,,Overcast,140,2013-05-31 23:03:00
6:58 PM,80.1,72.9,79,30.00,10.0,SE,8.1,16.1,N/A,,Partly Cloudy,140,2013-05-31 23:58:00
7:48 PM,78.8,73.4,83,30.00,10.0,SE,9.2,-,N/A,,Mostly Cloudy,130,2013-06-01 00:48:00
7:53 PM,78.8,73.4,83,30.00,10.0,SE,11.5,-,N/A,,Mostly Cloudy,140,2013-06-01 00:53:00
7:58 PM,78.8,73.4,83,30.01,10.0,SE,10.4,-,N/A,,Mostly Cloudy,140,2013-06-01 00:58:00
8:03 PM,78.8,73.4,83,30.00,10.0,SE,9.2,-,N/A,,Mostly Cloudy,130,2013-06-01 01:03:00
8:18 PM,78.8,73.4,83,30.00,10.0,SSE,8.1,-,N/A,,Mostly Cloudy,150,2013-06-01 01:18:00
8:23 PM,78.8,73.4,83,30.00,10.0,SE,10.4,-,N/A,,Mostly Cloudy,140,2013-06-01 01:23:00
8:33 PM,78.8,71.6,78,30.00,10.0,SE,10.4,-,N/A,,Scattered Clouds,140,2013-06-01 01:33:00
8:43 PM,78.8,73.4,83,29.99,10.0,SE,11.5,-,N/A,,Mostly Cloudy,130,2013-06-01 01:43:00
8:48 PM,78.8,73.4,83,29.99,10.0,SE,9.2,17.3,N/A,,Mostly Cloudy,130,2013-06-01 01:48:00
8:58 PM,78.4,72.9,83,30.00,10.0,SE,8.1,-,N/A,,Mostly Cloudy,130,2013-06-01 01:58:00
9:13 PM,78.8,73.4,83,29.99,10.0,SE,10.4,-,N/A,,Mostly Cloudy,140,2013-06-01 02:13:00
9:18 PM,78.8,71.6,78,29.99,10.0,SE,8.1,-,N/A,,Scattered Clouds,130,2013-06-01 02:18:00
9:28 PM,78.8,73.4,83,29.99,10.0,SE,9.2,-,N/A,,Mostly Cloudy,140,2013-06-01 02:28:00
9:38 PM,78.8,73.4,83,29.99,10.0,SE,10.4,-,N/A,,Scattered Clouds,140,2013-06-01 02:38:00
9:58 PM,78.3,72.3,82,30.00,10.0,SE,10.4,-,N/A,,Mostly Cloudy,130,2013-06-01 02:58:00
10:03 PM,78.8,71.6,78,29.99,10.0,SE,11.5,-,N/A,,Scattered Clouds,140,2013-06-01 03:03:00
10:13 PM,78.8,71.6,78,30.00,10.0,SE,10.4,-,N/A,,Mostly Cloudy,130,2013-06-01 03:13:00
10:23 PM,78.8,71.6,78,30.00,10.0,SE,9.2,-,N/A,,Scattered Clouds,130,2013-06-01 03:23:00
10:58 PM,77.9,72.1,82,30.00,10.0,SE,9.2,18.4,N/A,,Partly Cloudy,140,2013-06-01 03:58:00
11:23 PM,78.8,71.6,78,29.98,10.0,SSE,9.2,-,N/A,,Mostly Cloudy,150,2013-06-01 04:23:00
11:38 PM,78.8,73.4,83,29.97,10.0,SE,10.4,-,N/A,,Mostly Cloudy,140,2013-06-01 04:38:00
11:53 PM,78.8,71.6,78,29.97,10.0,SSE,9.2,-,N/A,,Scattered Clouds,150,2013-06-01 04:53:00
11:58 PM,77.9,72.5,83,29.98,10.0,SSE,11.5,17.3,N/A,,Scattered Clouds,150,2013-06-01 04:58:00